EW5383 Weather Reports


Display with metric or nautical units.
time (UTC)temp
F
wind
direction
speed
MPH
gust
MPH
rain 1hr
in
rain 24hr
in
rain mn
in
humidity
%
barometer
mb
20260831221534 82 71 0.0 5.0 0.00 0.01 0.00 1 1016.1
20260831220021 84 24 1.0 7.0 0.00 0.01 0.00 40 1016.0
20260831214517 88 62 0.0 3.0 0.00 0.02 0.00 57 1015.2
20260831213014 88 52 0.0 2.0 0.00 0.02 0.00 59 1014.7
20260831211511 89 56 0.0 0.0 0.00 0.02 0.00 60 1015.1
20260831210003 89 64 0.0 1.0 0.00 0.02 0.00 57 1015.2
20260831204600 88 308 0.0 1.0 0.00 0.69 0.00 48 1015.3
20260831203104 86 44 0.0 3.0 0.00 0.69 0.00 31 1015.5
20260831201552 87 44 0.0 3.0 0.00 0.69 0.00 58 1015.5
20260831200050 88 35 0.0 2.0 0.00 0.69 0.00 46 1015.3
20260831194602 87 49 0.0 1.0 0.00 0.73 0.00 26 1015.4
20260831193044 89 67 0.0 1.0 0.00 0.73 0.00 51 1015.6
20260831191535 91 64 0.0 1.0 0.00 0.73 0.00 57 1015.6
20260831190042 93 277 0.0 1.0 0.00 0.73 0.00 60 1015.6
20260831184524 95 45 0.0 1.0 0.00 0.73 0.00 56 1015.5
20260831183019 95 232 0.0 0.0 0.00 0.73 0.00 57 1016.0
20260831181516 94 19 0.0 1.0 0.00 0.73 0.00 58 1016.1
20260831180010 95 20 0.0 0.0 0.00 0.73 0.00 57 1016.2
20260831174506 93 236 0.0 0.0 0.00 0.73 0.00 59 1016.4
20260831173003 94 231 0.0 1.0 0.00 0.73 0.00 59 1016.6
20260831171558 91 231 0.0 1.0 0.00 0.73 0.00 59 1016.8
20260831170057 91 149 0.0 1.0 0.00 0.73 0.00 58 1017.2
20260831164554 91 50 0.0 1.0 0.00 0.73 0.00 55 1017.3
20260831163045 91 235 0.0 0.0 0.00 0.73 0.00 52 1017.4
20260831161540 90 204 0.0 1.0 0.00 0.73 0.00 44 1017.4
20260831160035 89 126 0.0 1.0 0.00 0.73 0.00 37 1017.6
20260831154532 88 103 0.0 1.0 0.00 0.73 0.00 28 1017.7
20260831153027 88 169 0.0 1.0 0.00 0.73 0.00 2 1017.7
20260831151523 87 102 0.0 2.0 0.00 0.73 0.00 1 1017.6
20260831150020 87 206 0.0 0.0 0.00 0.73 0.00 1 1017.5
20260831144513 86 233 0.0 1.0 0.00 0.73 0.00 1 1017.6
20260831143011 85 98 0.0 1.0 0.00 0.73 0.00 1 1017.6
20260831141505 85 97 0.0 1.0 0.00 0.73 0.00 1 1017.5
20260831140100 85 115 0.0 0.0 0.00 0.73 0.00 1 1017.5
20260831134608 84 198 0.0 2.0 0.00 0.73 0.00 1 1017.4
20260831133102 82 104 0.0 0.0 0.00 0.73 0.00 1 1017.4
20260831131555 81 130 0.0 0.0 0.00 0.73 0.00 1 1017.4
20260831130043 79 167 0.0 1.0 0.00 0.73 0.00 1 1017.3
20260831124538 78 106 0.0 1.0 0.00 0.73 0.00 1 1017.1
20260831123034 78 119 0.0 0.0 0.00 0.73 0.00 1 1017.1
20260831121530 77 102 0.0 0.0 0.00 0.73 0.00 1 1016.9
20260831120035 77 169 0.0 0.0 0.00 0.73 0.00 1 1016.6
20260831114521 76 169 0.0 0.0 0.00 0.73 0.00 1 1016.4
20260831113017 74 126 0.0 0.0 0.00 0.73 0.00 1 1016.3
20260831111517 0 0.0 0.0 0.00 0.73 0.00 1016.0
20260831110011 0 0.0 0.0 0.00 0.73 0.00 1015.6
20260831104506 0 0.0 0.0 0.00 0.73 0.00 1015.6
20260831103002 0 0.0 0.0 0.00 0.73 0.00 1015.6
20260831101601 0 0.0 0.0 0.00 0.73 0.00 1015.5
20260831100054 0 0.0 0.0 0.00 0.73 0.00 1015.6
20260831094600 0 0.0 0.0 0.00 0.73 0.00 1015.6
20260831093126 0 0.0 0.0 0.00 0.73 0.00 1015.6
20260831091548 0 0.0 0.0 0.00 0.73 0.00 1015.5
20260831090036 0 0.0 0.0 0.00 0.73 0.00 1015.6
20260831084612 0 0.0 0.0 0.00 0.73 0.00 1015.7
20260831083028 0 0.0 0.0 0.00 0.73 0.00 1015.6
20260831081525 0 0.0 0.0 0.00 0.73 0.00 1015.6
20260831080036 0 0.0 0.0 0.00 0.73 0.00 1015.6
20260831074532 0 0.0 0.0 0.00 0.73 0.00 1015.6
20260831073013 0 0.0 0.0 0.00 0.73 0.00 1015.7
20260831071507 0 0.0 0.0 0.00 0.73 0.00 1015.8
20260831070003 0 0.0 0.0 0.00 0.73 0.00 1016.0
20260831064600 0 0.0 0.0 0.00 0.73 0.00 1016.1
20260831063109 0 0.0 0.0 0.00 0.73 0.00 1016.1
20260831061552 0 0.0 0.0 0.00 0.73 0.00 1016.2
20260831060049 0 0.0 0.0 0.00 0.73 0.00 1016.2
20260831054543 0 0.0 0.0 0.00 0.73 0.00 1016.1
20260831053050 0 0.0 0.0 0.00 0.73 0.00 1016.3
20260831051538 0 0.0 0.0 0.00 0.73 0.00 1016.5
20260831050028 0 0.0 0.0 0.00 0.73 0.00 1016.7
20260831044525 0 0.0 0.0 0.00 0.73 0.00 1016.8
20260831043021 0 0.0 0.0 0.00 0.73 0.00 1016.7
20260831041518 0 0.0 0.0 0.00 0.73 0.00 1016.7
20260831040020 0 0.0 0.0 0.00 0.73 0.00 1016.9
20260831034510 0 0.0 0.0 0.00 0.73 0.73 1016.9
20260831033010 0 0.0 0.0 0.00 0.73 0.73 1016.8
20260831031510 0 0.0 0.0 0.00 0.73 0.73 1016.7
20260831030008 0 0.0 0.0 0.00 0.73 0.73 1016.9
20260831024508 0 0.0 0.0 0.00 0.73 0.73 1016.9
20260831023008 0 0.0 0.0 0.00 0.73 0.73 1017.0
20260831021507 0 0.0 0.0 0.00 0.73 0.73 1016.9
20260831020006 0 0.0 0.0 0.00 0.73 0.73 1016.8
20260831014506 0 0.0 0.0 0.00 0.73 0.73 1016.9
20260831013003 0 0.0 0.0 0.00 0.73 0.73 1016.9
20260831011601 0 0.0 0.0 0.00 0.73 0.73 1016.8
20260831010104 0 0.0 0.0 0.00 0.73 0.73 1016.8
20260831004548 75 106 0.0 0.0 0.00 0.73 0.73 1 1016.6
20260831003044 76 105 0.0 0.0 0.00 0.73 0.73 1 1016.5
20260831001539 76 108 0.0 0.0 0.00 0.73 0.73 1 1016.3
20260831000035 76 108 0.0 0.0 0.00 0.73 0.73 1 1016.2
20260830234529 76 100 0.0 0.0 0.00 0.74 0.73 1 1016.1
20260830233025 76 95 0.0 0.0 0.00 0.74 0.73 1 1016.1
20260830231520 76 104 0.0 0.0 0.00 0.74 0.73 1 1016.0
20260830230017 76 113 0.0 0.0 0.01 0.74 0.73 1 1015.8
20260830224512 76 105 0.0 0.0 0.02 0.79 0.73 1 1015.8
20260830223008 75 100 0.0 0.0 0.02 0.79 0.73 1 1015.6